TimeEDT,TemperatureF,Dew PointF,Humidity,Sea Level PressureIn,VisibilityMPH,Wind Direction,Wind SpeedMPH,Gust SpeedMPH,PrecipitationIn,Events,Conditions,WindDirDegrees,DateUTC
12:56 AM,44.1,39.0,82,30.00,10.0,South,4.6,-,N/A,,Clear,180,2012-10-10 04:56:00
1:53 AM,44.6,39.2,81,29.98,10.0,Variable,3.5,-,N/A,,Mostly Cloudy,0,2012-10-10 05:53:00
1:56 AM,45.0,39.0,80,29.98,10.0,Variable,3.5,-,N/A,,Mostly Cloudy,0,2012-10-10 05:56:00
2:56 AM,46.0,39.9,79,29.96,10.0,Calm,Calm,-,N/A,,Overcast,0,2012-10-10 06:56:00
3:56 AM,46.0,39.9,79,29.95,10.0,South,3.5,-,N/A,,Overcast,180,2012-10-10 07:56:00
4:54 AM,46.4,39.2,76,29.94,10.0,SSW,4.6,-,N/A,,Overcast,210,2012-10-10 08:54:00
4:56 AM,46.0,39.9,79,29.94,10.0,SW,6.9,-,N/A,,Overcast,220,2012-10-10 08:56:00
5:56 AM,46.0,39.9,79,29.93,10.0,SSW,8.1,-,N/A,,Overcast,210,2012-10-10 09:56:00
6:32 AM,44.6,39.2,81,29.93,10.0,SW,9.2,-,N/A,,Mostly Cloudy,230,2012-10-10 10:32:00
6:56 AM,44.1,39.0,82,29.94,10.0,SSW,5.8,-,N/A,,Mostly Cloudy,210,2012-10-10 10:56:00
7:17 AM,42.8,39.2,87,29.92,10.0,SSW,4.6,-,N/A,,Scattered Clouds,210,2012-10-10 11:17:00
7:56 AM,44.1,39.9,85,29.93,10.0,SSW,4.6,-,N/A,,Scattered Clouds,210,2012-10-10 11:56:00
8:56 AM,46.9,41.0,80,29.92,10.0,SW,9.2,-,N/A,,Mostly Cloudy,230,2012-10-10 12:56:00
9:56 AM,48.9,41.0,74,29.91,10.0,SW,11.5,-,N/A,,Mostly Cloudy,220,2012-10-10 13:56:00
10:56 AM,52.0,41.0,66,29.89,10.0,SW,12.7,23.0,N/A,,Mostly Cloudy,220,2012-10-10 14:56:00
11:29 AM,51.8,42.8,71,29.88,10.0,SW,13.8,23.0,N/A,,Overcast,230,2012-10-10 15:29:00
11:56 AM,50.0,42.1,74,29.89,10.0,WSW,11.5,25.3,N/A,,Overcast,250,2012-10-10 15:56:00
12:29 PM,46.4,44.6,93,29.89,2.5,WSW,12.7,21.9,N/A,,Overcast,250,2012-10-10 16:29:00
12:45 PM,46.4,44.6,93,29.90,2.5,West,17.3,21.9,0.01,,Overcast,260,2012-10-10 16:45:00
12:56 PM,46.0,44.1,93,29.91,2.5,West,15.0,24.2,0.01,,Overcast,260,2012-10-10 16:56:00
1:07 PM,46.4,42.8,87,29.90,4.0,West,15.0,-,N/A,,Overcast,260,2012-10-10 17:07:00
1:56 PM,46.0,43.0,89,29.90,10.0,WSW,16.1,21.9,0.00,,Overcast,250,2012-10-10 17:56:00
2:11 PM,46.4,42.8,87,29.89,10.0,West,12.7,-,0.01,,Overcast,260,2012-10-10 18:11:00
2:46 PM,46.4,42.8,87,29.89,8.0,West,8.1,-,0.01,Rain,Light Rain,260,2012-10-10 18:46:00
2:56 PM,46.0,44.1,93,29.91,10.0,WSW,10.4,-,0.01,,Overcast,250,2012-10-10 18:56:00
3:22 PM,48.2,42.8,82,29.89,10.0,WSW,11.5,20.7,N/A,,Overcast,250,2012-10-10 19:22:00
3:54 PM,50.0,42.8,76,29.88,10.0,West,12.7,-,N/A,,Scattered Clouds,260,2012-10-10 19:54:00
3:56 PM,50.0,42.1,74,29.90,10.0,WSW,15.0,20.7,N/A,,Scattered Clouds,250,2012-10-10 19:56:00
4:56 PM,44.1,37.9,79,29.94,4.0,West,13.8,36.8,0.01,Rain,Light Rain,270,2012-10-10 20:56:00
5:56 PM,46.0,39.0,76,29.95,10.0,West,11.5,-,0.01,,Scattered Clouds,280,2012-10-10 21:56:00
6:11 PM,44.6,37.4,76,29.94,10.0,WNW,9.2,-,N/A,,Scattered Clouds,300,2012-10-10 22:11:00
6:56 PM,43.0,37.0,80,29.98,10.0,West,8.1,-,N/A,,Mostly Cloudy,280,2012-10-10 22:56:00
7:56 PM,41.0,37.0,86,30.00,10.0,West,8.1,-,N/A,,Clear,260,2012-10-10 23:56:00
8:56 PM,42.1,34.0,73,30.02,10.0,WSW,9.2,-,N/A,,Overcast,250,2012-10-11 00:56:00
9:56 PM,43.0,33.1,68,30.05,10.0,WNW,11.5,-,N/A,,Overcast,290,2012-10-11 01:56:00
10:19 PM,42.8,33.8,70,30.05,10.0,WNW,15.0,24.2,N/A,,Overcast,290,2012-10-11 02:19:00
10:56 PM,41.0,33.1,73,30.08,10.0,West,12.7,23.0,N/A,,Mostly Cloudy,280,2012-10-11 02:56:00
11:56 PM,41.0,33.1,73,30.09,10.0,West,12.7,-,N/A,,Overcast,280,2012-10-11 03:56:00